Address 0x36c03746829cb578891af505a4093b3706a8475f

 
 
Txn Hash Method
Block
From
To
Value [Txn Fee]
0x0ef0f03c5c742dda0d896691c13523e6c6c0a207c56cb05fe4dff63c647be282Fight105959082021-09-03 15:20:0416 days 3 hrs ago0x36c03746829cb578891af505a4093b3706a8475fOUT CryptoBlades: Gameplay0 BNB0.00075376
0x915f2c338a0fbf4bc6bf10b4659cbddde815ba841ee35c060cda09215bbd4b56Fight105958992021-09-03 15:19:3716 days 3 hrs ago0x36c03746829cb578891af505a4093b3706a8475fOUT CryptoBlades: Gameplay0 BNB0.000758165
0xe37233ac77ab0b1dcbbd36e78763e9874fdf517282412aad9e39a0940aac2aa5Fight105958902021-09-03 15:19:0516 days 3 hrs ago0x36c03746829cb578891af505a4093b3706a8475fOUT CryptoBlades: Gameplay0 BNB0.00075371
0xfcd85382c5a51f6deb0089c3d4917de652a1cf9bbfb288f081fa5cbc21e37255Fight105958782021-09-03 15:18:2916 days 3 hrs ago0x36c03746829cb578891af505a4093b3706a8475fOUT CryptoBlades: Gameplay0 BNB0.00075799
0x030e692db8ced753e5285c9eaea782d87e82027a71052b45dec6924a5eedf9faFight105057052021-08-31 11:04:5419 days 8 hrs ago0x36c03746829cb578891af505a4093b3706a8475fOUT CryptoBlades: Gameplay0 BNB0.0007525
0x941d96eb0df883ac12b3dbc68d62fed033f18fb89b826016dcc7fd4ce0f65388Fight105056982021-08-31 11:04:3319 days 8 hrs ago0x36c03746829cb578891af505a4093b3706a8475fOUT CryptoBlades: Gameplay0 BNB0.00075255
0x9a76c3826eec0db7f57898aef37178e7363ffbf7820c8977a83aa85e95f11c42Fight105056932021-08-31 11:04:1819 days 8 hrs ago0x36c03746829cb578891af505a4093b3706a8475fOUT CryptoBlades: Gameplay0 BNB0.00075751
0xd0947dff507d26f5391f087c7413be44665b471f8a125ebcdb5a177b7dea20f3Fight105056832021-08-31 11:03:4819 days 8 hrs ago0x36c03746829cb578891af505a4093b3706a8475fOUT CryptoBlades: Gameplay0 BNB0.00075298
0x1e5e5bc4b8c16d6f69be0905e5490cdfc1af6e28db93a91a39ec20f0f26a6405Fight104716342021-08-30 6:06:3620 days 13 hrs ago0x36c03746829cb578891af505a4093b3706a8475fOUT CryptoBlades: Gameplay0 BNB0.0007525
0x524dd5045c31facc1df2ee251bf77e664f82e6187cf92276bbeca2fabe2ef42bFight104716272021-08-30 6:06:1520 days 13 hrs ago0x36c03746829cb578891af505a4093b3706a8475fOUT CryptoBlades: Gameplay0 BNB0.00074681
0xc28e83269e8f82433483e440946de712fae285a9d4dce85b15d3e44cb16d9a43Fight104715492021-08-30 6:02:2120 days 13 hrs ago0x36c03746829cb578891af505a4093b3706a8475fOUT CryptoBlades: Gameplay0 BNB0.0007563
0x5359b89b9857515252a25997b399c436982cef6097d9a6d8f4a3bbcc2f35af80Fight104715312021-08-30 6:01:2720 days 13 hrs ago0x36c03746829cb578891af505a4093b3706a8475fOUT CryptoBlades: Gameplay0 BNB0.00075678
0x1093293c4036c1aa39e3c69b6bf274471427cd5f5733cf39617ff967474bb4dfWithdraw103607752021-08-26 8:25:1924 days 10 hrs ago0x36c03746829cb578891af505a4093b3706a8475fOUT 0xd6b2d8f59bf30cfe7009fb4fc00a7b13ca836a2c0 BNB0.000339995
0xffccef8fc6016cd6b67afcbbb3ef9c9d31de4c55f38863f0ad058d4df7f6bbe9Fight101951012021-08-20 13:32:1630 days 5 hrs ago0x36c03746829cb578891af505a4093b3706a8475fOUT CryptoBlades: Gameplay0 BNB0.000752065
0xc034e47e726ea7a1213c3ffcd9d35b9ac274e16df1ea5cbe106e56dc3dca1f5eFight101950902021-08-20 13:31:4330 days 5 hrs ago0x36c03746829cb578891af505a4093b3706a8475fOUT CryptoBlades: Gameplay0 BNB0.00074602
0x15ff5ca2467af6b1fc3c9afd425a49a02cc621d535d27b518292d4d7ba4a47c9Fight101950852021-08-20 13:31:2830 days 5 hrs ago0x36c03746829cb578891af505a4093b3706a8475fOUT CryptoBlades: Gameplay0 BNB0.00074607
0x184b12859bd3964f31f87ec221ccc04b775c654c9af20080249f3b6cde10c523Fight101950742021-08-20 13:30:5530 days 5 hrs ago0x36c03746829cb578891af505a4093b3706a8475fOUT CryptoBlades: Gameplay0 BNB0.0007465
0x9cf3ef0be90ce44fc2f0eedaa574f8374d877887ceb0880f03853c5918d2f72cFight101714332021-08-19 17:45:0231 days 1 hr ago0x36c03746829cb578891af505a4093b3706a8475fOUT CryptoBlades: Gameplay0 BNB0.00074718
0xbcf71ec599e8db9a02972f5d28573ae5ef7bfece7ffc6b0ffbc8a6eada50a460Fight101714262021-08-19 17:44:4131 days 1 hr ago0x36c03746829cb578891af505a4093b3706a8475fOUT CryptoBlades: Gameplay0 BNB0.00075098
0x051d68044e461fe887eea0a25034ca8544553a74cb29d4b2777ae976925bc845Fight101714152021-08-19 17:44:0831 days 1 hr ago0x36c03746829cb578891af505a4093b3706a8475fOUT CryptoBlades: Gameplay0 BNB0.000751635
0x14dda6105d798014a5c30ac5dce3bb65389ee2f25751406a84e2c48e899fc6aaFight101714062021-08-19 17:43:4131 days 1 hr ago0x36c03746829cb578891af505a4093b3706a8475fOUT CryptoBlades: Gameplay0 BNB0.000704465
0x1a5eda02daa651475445d4e24ea3d94e12914d14fe0c9aa33becbee8b388506dFight101285512021-08-18 5:46:0132 days 13 hrs ago0x36c03746829cb578891af505a4093b3706a8475fOUT CryptoBlades: Gameplay0 BNB0.000751585
0xea29d4d17c7b55352acc60b5759e8cf212849d4704915e60835e6f0d29bc9e0cFight101285442021-08-18 5:45:4032 days 13 hrs ago0x36c03746829cb578891af505a4093b3706a8475fOUT CryptoBlades: Gameplay0 BNB0.00074602
0xcdb54fb10f8649143061063e5f2c0d956227e002124a6e1d7bac9ccdcfc03bc8Fight101285362021-08-18 5:45:1632 days 13 hrs ago0x36c03746829cb578891af505a4093b3706a8475fOUT CryptoBlades: Gameplay0 BNB0.00075098
0x1f80010f82434282c1adf409cf21a296ff0d5e0210b5876ff82d708dc7a4af02Fight101285272021-08-18 5:44:4932 days 13 hrs ago0x36c03746829cb578891af505a4093b3706a8475fOUT CryptoBlades: Gameplay0 BNB0.000747055
[ Download CSV Export 
Parent Txn Hash Block From To Value
Loading

Contract Name:
0 BNB

Compiler Version
0

Optimization Enabled:
0 BNB

Other Settings:
-NA-
Block Transaction Gas Used Reward
Age Block Fee Address BC Fee Address Voting Power Jailed Incoming
Block Uncle Number Difficulty Gas Used Reward
Loading
Loading
Make sure to use the "Vote Down" button for any spammy posts, and the "Vote Up" for interesting conversations.